CW6344 Weather Reports


time (UTC)temp
C
wind
direction
speed
KPH
gust
KPH
rain 1hr
cm
rain 24hr
cm
rain mn
cm
humidity
%
barometer
mb
20260906100609 18 132 0.0 0.0 0.00 0.00 0.00 93 1013.1
20260906094409 18 132 0.0 0.0 0.00 0.00 0.00 93 1012.8
20260906093409 18 132 0.0 0.0 0.00 0.00 0.00 93 1012.8
20260906092409 18 132 0.0 0.0 0.00 0.00 0.00 93 1012.6
20260906091409 18 132 0.0 0.0 0.00 0.00 0.00 92 1012.6
20260906090409 18 132 0.0 0.0 0.00 0.00 0.00 92 1012.4
20260906085409 18 132 0.0 0.0 0.00 0.00 0.00 92 1012.3
20260906084539 18 132 0.0 0.0 0.00 0.00 0.00 92 1012.2
20260906083409 18 132 0.0 0.0 0.00 0.00 0.00 92 1012.3
20260906082409 18 132 0.0 0.0 0.00 0.00 0.00 92 1012.2
20260906080409 18 132 0.0 0.0 0.00 0.00 0.00 92 1012.2
20260906075409 18 132 0.0 0.0 0.00 0.00 0.00 92 1012.2
20260906074409 18 132 0.0 0.0 0.00 0.00 0.00 92 1012.1
20260906073409 19 132 0.0 0.0 0.00 0.00 0.00 92 1012.1
20260906072409 19 132 0.0 0.0 0.00 0.00 0.00 92 1012.1
20260906070409 19 132 0.0 0.0 0.00 0.00 0.00 92 1012.0
20260906065409 19 132 0.0 0.0 0.00 0.00 0.00 92 1012.0
20260906064409 20 132 0.0 0.0 0.00 0.00 0.00 92 1012.0
20260906063409 20 132 0.0 0.0 0.00 0.00 0.00 92 1012.1
20260906062409 20 132 0.0 0.0 0.00 0.00 0.00 92 1012.0
20260906061409 20 132 0.0 0.0 0.00 0.00 0.00 92 1012.1
20260906060410 20 132 0.0 0.0 0.00 0.00 0.00 92 1012.1
20260906055409 20 132 0.0 0.0 0.00 0.00 0.00 92 1012.2
20260906054409 20 132 0.0 0.0 0.00 0.00 0.00 92 1012.2
20260906053409 20 132 0.0 0.0 0.00 0.00 0.00 91 1012.2
20260906052409 20 132 0.0 0.0 0.00 0.00 0.00 92 1012.2
20260906051409 20 132 0.0 0.0 0.00 0.00 0.00 92 1012.4
20260906050439 20 132 0.0 0.0 0.00 0.00 0.00 91 1012.4
20260906045409 21 132 0.0 0.0 0.00 0.00 0.00 91 1012.4
20260906044409 21 132 0.0 0.0 0.00 0.00 0.00 91 1012.5
20260906043409 21 132 0.0 0.0 0.00 0.00 0.00 91 1012.5
20260906042439 21 132 0.0 0.0 0.00 0.00 0.00 91 1012.5
20260906041409 21 132 0.0 0.0 0.00 0.00 0.00 91 1012.5
20260906040410 21 132 0.0 0.0 0.00 0.00 0.00 91 1012.4
20260906035409 21 132 0.0 0.0 0.00 0.00 0.00 90 1012.4
20260906034409 21 132 0.0 0.0 0.00 0.00 0.00 90 1012.5
20260906033409 21 132 0.0 0.0 0.00 0.00 0.00 90 1012.5
20260906032409 21 132 0.0 0.0 0.00 0.00 0.00 90 1012.6
20260906031409 21 132 0.0 0.0 0.00 0.00 0.00 89 1012.5
20260906030440 21 132 0.0 0.0 0.00 0.00 0.00 89 1012.4
20260906025410 21 132 0.0 0.0 0.00 0.00 0.00 89 1012.4
20260906024409 21 132 0.0 0.0 0.00 0.00 0.00 88 1012.4
20260906023410 21 132 0.0 0.0 0.00 0.00 0.00 88 1012.5
20260906022410 22 132 0.0 0.0 0.00 0.00 0.00 87 1012.5
20260906021409 22 132 0.0 0.0 0.00 0.00 0.00 87 1012.5
20260906020409 22 132 0.0 0.0 0.00 0.00 0.00 87 1012.5
20260906015410 22 132 0.0 0.0 0.00 0.00 0.00 87 1012.5
20260906014410 22 132 0.0 0.0 0.00 0.00 0.00 86 1012.3
20260906013410 22 132 0.0 0.0 0.00 0.00 0.00 86 1012.2
20260906012409 22 132 0.0 0.0 0.00 0.00 0.00 86 1012.2
20260906011410 22 132 0.0 0.0 0.00 0.00 0.00 87 1012.0
20260906010409 22 132 0.0 0.0 0.00 0.00 0.00 87 1011.8
20260906005411 22 132 0.0 0.0 0.00 0.00 0.00 86 1011.6
20260906004410 22 132 0.0 0.0 0.00 0.00 0.00 86 1011.6
20260906003410 23 132 0.0 0.0 0.00 0.00 0.00 86 1011.5
20260906002440 22 132 0.0 0.0 0.00 0.00 0.00 86 1011.4
20260906001410 23 132 0.0 0.0 0.00 0.00 0.00 86 1011.5
20260906000411 23 132 0.0 0.0 0.00 0.00 0.00 85 1011.3
20260905235410 23 132 0.0 0.0 0.00 0.00 0.00 85 1011.5
20260905234440 23 132 0.0 0.0 0.00 0.00 0.00 85 1011.4
20260905233410 23 132 0.0 0.0 0.00 0.00 0.00 84 1011.4
20260905232409 23 128 0.0 0.0 0.00 0.00 0.00 84 1011.4
20260905231410 23 310 0.0 0.0 0.00 0.00 0.00 84 1011.4
20260905230410 24 284 0.0 0.0 0.00 0.00 0.00 82 1011.4
20260905225410 24 284 0.0 0.0 0.00 0.00 0.00 83 1011.4
20260905224410 24 284 0.0 0.0 0.00 0.00 0.00 82 1011.2
20260905223410 25 284 0.0 0.0 0.00 0.00 0.00 82 1011.1
20260905222410 25 284 0.0 0.0 0.00 0.03 0.00 83 1010.9
20260905220410 25 284 0.0 0.0 0.00 0.03 0.00 79 1010.8
20260905214410 25 284 0.0 0.0 0.00 0.03 0.00 79 1011.0
20260905213410 25 284 0.0 0.0 0.00 0.03 0.00 79 1011.0
20260905212410 25 284 0.0 0.0 0.00 0.03 0.00 79 1010.9
20260905210410 26 284 0.0 0.0 0.00 0.03 0.00 77 1010.7
20260905205410 26 285 0.0 3.2 0.00 0.03 0.00 76 1010.8
20260905204410 27 5 0.0 1.6 0.00 0.03 0.00 74 1010.5
20260905203410 27 315 4.8 4.8 0.00 0.03 0.00 75 1010.5
20260905202410 27 311 0.0 3.2 0.00 0.03 0.00 72 1010.6
20260905201410 27 261 0.0 0.0 0.00 0.03 0.00 73 1010.6
20260905200410 26 360 0.0 1.6 0.00 0.03 0.00 72 1010.7
20260905194410 26 19 0.0 0.0 0.00 0.03 0.00 78 1010.6
20260905193410 26 250 0.0 3.2 0.00 0.03 0.00 78 1010.5
20260905192410 26 225 0.0 0.0 0.00 0.03 0.00 76 1010.4
20260905191410 26 225 0.0 0.0 0.00 0.03 0.00 77 1010.6
20260905190410 26 36 0.0 0.0 0.00 0.03 0.00 77 1010.6
20260905185410 25 70 0.0 0.0 0.00 0.03 0.00 79 1010.3
20260905184410 25 70 0.0 0.0 0.00 0.03 0.00 80 1010.3
20260905182440 25 320 0.0 0.0 0.00 0.03 0.00 82 1011.2
20260905181410 25 320 0.0 0.0 0.00 0.03 0.00 84 1011.4
20260905180410 25 318 0.0 0.0 0.00 0.03 0.00 82 1012.1
20260905175410 25 318 0.0 0.0 0.00 0.03 0.00 82 1012.2
20260905174410 26 318 0.0 0.0 0.00 0.03 0.00 80 1012.4
20260905173410 25 318 0.0 0.0 0.00 0.03 0.00 81 1012.4
20260905172410 26 318 0.0 0.0 0.00 0.03 0.00 81 1012.3
20260905171410 26 318 0.0 0.0 0.00 0.03 0.00 79 1012.4
20260905170440 26 306 0.0 1.6 0.00 0.03 0.00 77 1012.3
20260905165410 26 350 0.0 1.6 0.00 0.03 0.00 77 1012.4
20260905164510 26 292 1.6 4.8 0.00 0.03 0.00 77 1012.3
20260905162410 26 265 0.0 4.8 0.00 0.03 0.00 79 1012.0
20260905160410 26 279 0.0 4.8 0.00 0.03 0.00 80 1012.3
20260905155410 26 296 1.6 3.2 0.00 0.03 0.00 81 1012.2
20260905154410 26 67 0.0 0.0 0.00 0.03 0.00 82 1012.2
20260905153410 26 301 0.0 3.2 0.00 0.03 0.00 83 1012.2
20260905152410 26 64 1.6 4.8 0.00 0.03 0.00 82 1012.3
20260905151410 26 286 3.2 3.2 0.00 0.03 0.00 83 1012.3
20260905150410 26 286 1.6 8.0 0.00 0.03 0.00 82 1012.3
20260905144410 26 276 4.8 4.8 0.00 0.03 0.00 82 1012.3
20260905143410 26 113 0.0 3.2 0.00 0.03 0.00 81 1012.1
20260905142410 26 327 4.8 4.8 0.00 0.03 0.00 83 1011.8
20260905140440 26 146 0.0 8.0 0.00 0.03 0.00 82 1011.8
20260905135410 26 282 0.0 0.0 0.00 0.03 0.00 83 1011.9
20260905134410 26 267 3.2 3.2 0.00 0.03 0.00 82 1011.9
20260905133410 25 242 0.0 0.0 0.00 0.03 0.00 84 1012.0
20260905132410 25 242 0.0 0.0 0.00 0.03 0.00 84 1011.8
20260905131410 25 186 0.0 0.0 0.00 0.03 0.00 83 1011.7
20260905130410 25 259 0.0 4.8 0.00 0.03 0.00 83 1011.7
20260905124410 25 284 0.0 0.0 0.00 0.03 0.00 84 1011.7
20260905123410 25 316 1.6 1.6 0.00 0.03 0.00 85 1011.7
20260905122410 25 5 0.0 0.0 0.00 0.03 0.00 85 1011.7
20260905121410 24 28 1.6 1.6 0.00 0.03 0.00 85 1011.7
20260905120410 24 269 0.0 0.0 0.00 0.03 0.00 86 1011.6
20260905115410 24 269 0.0 1.6 0.00 0.03 0.00 86 1011.7
20260905114410 24 299 0.0 0.0 0.00 0.03 0.00 86 1011.5
20260905112410 23 323 0.0 0.0 0.00 0.03 0.00 88 1011.3
20260905110410 23 333 0.0 0.0 0.00 0.03 0.00 89 1011.1
20260905105410 22 338 0.0 0.0 0.00 0.03 0.00 90 1011.0
20260905104410 22 321 0.0 0.0 0.00 0.03 0.00 90 1011.1
20260905103410 22 307 0.0 6.4 0.00 0.03 0.00 90 1010.9
20260905102510 22 302 0.0 0.0 0.00 0.03 0.00 90 1010.8
20260905101410 22 302 0.0 0.0 0.00 0.03 0.00 90 1010.7